User: anonymous   Login
Location: Unspecified
(0.0000°N, 0.0000°E)
Time: 14:44:46
(UTC+02:00)
Language:

Landsat 4 - Orbit

View from above orbital plane
View from above orbital plane
View from above satellite
View from above satellite

Ground track
Ground track

The orbit data is extracted from the following two-line orbital elements,

1 13367U 82072A   17118.92384465 +.00000880 +00000-0 +50116-4 0  9991
2 13367 098.2445 277.5014 0013511 014.4078 137.5899 15.15808563302879
Epoch (UTC): 28 April 2017 22:10:20
Eccentricity: 0.0013511
inclination: 98.2445°
perigee height: 509 km
apogee height: 528 km
right ascension of ascending node: 277.5014°
argument of perigee: 14.4078°
revolutions per day: 15.15808563
mean anomaly at epoch: 137.5899°
orbit number at epoch: 30287

The dashed part of the orbit path shows where the satellite is in the earth's shadow,  

DLR